Theta_e
304 304 304 305 305 306 307 308 308 309 309 308 308 307 308 308 308 309 309 310 310 310 311 311 312 312 313 313 313 316 321 322 322 323 328 332 328 325 323 319 315 314 313 318 323 326 325 323 324 322 321 322 323 321 320 320 319 318 318 318 319 319 319 319 320 320 319 319 319 320 321 321 321 322 324 323 323 324 324 323 324 324 324 334 338 334 330 328
304 304 304 304 305 305 306 307 308 309 309 309 308 308 308 308 308 309 309 310 310 310 311 310 311 311 312 312 312 318 322 322 322 325 330 332 327 324 324 320 317 314 316 322 326 326 324 323 322 321 322 323 323 320 320 321 320 319 319 319 319 319 320 320 320 319 319 319 319 320 321 321 321 323 323 322 323 323 324 323 324 323 325 332 335 336 333 328
304 304 304 304 305 305 306 307 308 309 310 309 309 308 308 308 308 309 309 310 310 311 310 310 311 311 312 312 314 319 322 323 324 327 332 331 325 324 324 321 317 316 319 325 327 324 322 321 320 322 322 322 322 321 321 321 321 320 319 319 319 319 321 320 320 319 320 319 320 321 320 321 323 324 322 322 323 323 323 322 324 325 328 330 332 335 336 336
304 304 305 304 305 305 305 306 308 309 310 310 309 309 309 309 309 309 309 310 310 310 310 310 310 310 311 311 315 320 322 326 328 330 333 329 325 324 324 322 318 317 321 325 325 324 321 321 321 322 322 322 322 322 321 321 321 321 321 320 319 320 320 321 321 321 321 321 320 321 320 322 324 323 323 323 323 322 322 322 324 326 329 331 330 333 335 338
305 305 305 305 305 305 305 306 307 308 309 310 310 309 309 309 309 309 310 310 310 310 310 310 310 311 311 312 317 320 323 330 331 330 331 326 324 324 324 322 319 319 322 325 325 323 322 323 323 323 323 323 322 322 321 321 321 321 321 320 320 321 321 322 322 321 321 321 321 322 322 324 324 323 324 324 323 322 322 322 324 325 329 330 328 330 332 335
305 305 305 305 305 305 305 306 306 308 309 310 310 310 309 310 310 310 310 310 310 310 310 310 310 311 310 312 317 319 324 330 329 329 327 324 324 324 324 323 320 320 323 327 326 324 323 324 323 323 323 321 321 322 322 322 321 321 321 322 322 323 322 321 323 322 322 321 322 322 321 323 323 322 323 324 324 322 322 322 323 324 328 328 324 325 330 333
305 305 305 305 306 306 306 306 306 308 309 309 310 310 310 310 310 310 310 310 310 310 310 310 310 310 310 313 318 322 327 332 329 328 325 324 325 324 324 323 322 322 325 327 327 325 324 324 324 324 323 322 323 323 322 322 322 322 322 323 323 322 322 323 324 323 322 322 322 322 321 323 324 322 322 323 323 322 322 322 323 325 327 326 324 323 327 332
306 306 306 306 306 306 306 306 306 308 309 310 310 311 310 310 310 310 311 310 311 311 310 311 310 310 311 313 320 326 331 332 331 329 325 324 324 324 324 323 323 324 326 327 327 325 324 325 325 325 323 322 323 323 323 322 322 323 323 324 323 322 324 323 324 323 323 323 322 322 323 323 322 321 323 323 323 322 322 325 328 328 328 328 326 324 327 331
306 306 306 306 306 306 306 306 306 307 309 310 310 310 311 311 311 311 311 311 310 311 310 311 310 310 311 314 321 329 331 332 332 330 326 325 325 324 324 324 324 324 326 327 327 326 325 326 326 325 324 324 324 323 323 322 323 324 324 324 323 324 325 325 324 324 325 325 323 323 322 322 321 322 323 324 325 325 326 330 332 331 330 329 328 327 329 330
306 306 306 306 307 306 306 306 307 307 308 309 310 310 310 311 311 311 311 311 311 311 310 310 310 310 313 318 325 329 330 331 331 329 325 324 325 324 324 325 325 325 326 327 326 326 326 326 326 325 326 326 325 324 323 323 323 324 324 324 324 324 325 326 325 325 325 325 325 325 324 324 323 324 324 325 326 327 328 331 331 332 333 331 330 328 329 329
306 306 307 307 307 307 307 307 307 307 308 310 310 310 309 310 311 311 311 311 311 310 310 310 310 311 315 321 327 329 329 330 330 327 326 325 325 325 324 325 326 326 326 327 327 327 327 327 327 327 326 326 326 325 326 325 324 325 323 322 323 325 326 326 326 326 326 327 327 327 327 326 325 325 325 326 327 327 328 330 331 332 334 333 332 331 330 329
306 306 307 307 307 307 307 307 307 307 308 311 311 309 309 310 310 311 310 311 311 311 311 309 310 313 316 322 327 327 328 331 329 327 326 325 325 325 324 324 326 327 326 326 327 327 328 327 327 327 327 327 327 328 327 326 325 324 323 323 325 326 327 326 326 326 325 328 329 328 327 327 326 326 325 326 329 330 331 332 332 331 332 333 332 332 331 329
307 307 307 308 308 308 307 307 307 307 308 311 311 308 309 310 310 310 310 311 311 310 310 310 313 316 319 324 328 328 329 331 329 327 325 325 326 326 325 325 327 327 326 326 327 327 327 327 327 327 327 328 327 328 327 327 325 325 326 326 327 327 326 327 327 326 326 329 329 328 327 326 325 326 327 330 331 331 331 331 331 330 331 331 330 330 330 330
307 307 308 308 308 308 308 307 308 307 308 310 311 310 310 310 310 310 311 311 311 311 311 313 316 318 322 326 328 330 328 328 329 329 327 327 327 327 327 326 326 326 326 326 326 327 327 328 327 327 327 327 328 328 328 329 327 327 328 327 327 327 326 328 328 328 328 329 329 329 328 327 326 326 329 330 330 330 330 330 330 331 331 329 328 329 330 332
308 308 308 308 308 308 308 307 308 307 308 310 311 313 314 313 312 311 311 312 312 313 313 316 318 321 326 330 329 331 329 327 329 330 329 328 327 327 327 327 326 326 326 326 327 327 328 328 328 328 328 328 328 328 329 329 329 328 328 326 327 328 328 328 328 328 329 329 329 330 329 328 327 328 330 331 330 331 331 330 331 331 329 328 330 330 330 333
308 308 308 308 308 309 308 308 308 308 307 309 312 315 317 316 315 315 314 314 314 315 316 321 325 325 328 330 331 333 330 327 328 329 329 328 327 327 327 328 327 327 327 327 327 328 328 329 329 329 330 329 329 330 329 329 329 329 328 325 325 327 327 328 328 329 329 329 329 329 329 329 328 328 331 332 332 332 332 331 332 331 328 330 330 329 331 333
308 309 308 308 309 308 309 309 308 308 308 309 312 316 318 317 318 320 318 316 316 316 318 324 329 328 329 330 332 332 330 328 328 329 330 328 327 327 327 328 328 328 329 329 329 329 330 330 330 331 330 330 331 332 331 330 330 329 327 325 325 327 327 328 329 330 329 329 329 329 329 329 328 329 331 333 333 333 333 332 332 331 329 330 330 328 332 333
309 309 308 308 309 309 309 309 309 309 308 309 312 316 319 319 322 323 319 317 318 320 322 323 326 328 330 330 331 331 331 331 329 329 330 329 328 327 327 328 327 328 329 330 331 331 331 331 331 331 331 330 332 333 332 331 330 328 326 325 325 327 329 329 329 329 329 329 330 330 329 329 327 329 330 332 333 333 333 332 330 330 329 330 330 330 334 335
310 309 309 308 308 309 309 310 309 309 309 310 312 317 323 326 328 325 319 320 323 327 332 329 326 331 330 328 330 329 330 331 330 329 330 329 328 328 327 328 327 328 329 331 332 332 332 332 332 332 331 331 332 332 331 331 329 327 328 327 326 327 329 330 329 329 328 330 331 330 329 329 329 330 330 331 333 332 332 330 329 329 328 329 331 332 334 336
310 309 309 309 308 309 309 310 310 309 310 312 313 320 328 331 331 329 324 325 326 328 332 329 326 329 328 329 330 329 329 330 329 329 329 329 329 328 328 328 329 329 330 331 333 333 331 332 334 332 331 332 332 330 330 331 330 330 330 329 328 328 329 331 329 329 329 330 331 330 330 330 330 331 331 331 332 332 332 331 330 330 329 330 331 334 335 336
310 310 309 309 308 309 310 311 310 310 311 312 314 322 330 327 324 326 325 326 326 325 328 328 327 328 328 329 330 329 330 329 329 330 330 329 329 328 329 329 329 331 332 332 334 333 333 334 335 333 331 332 331 330 331 332 332 332 331 329 329 328 330 331 330 330 330 331 331 329 330 331 331 331 331 332 332 332 332 331 331 330 330 331 333 335 337 337
310 310 309 309 308 309 310 311 310 311 311 313 315 323 329 324 321 323 323 323 325 326 328 329 328 328 328 329 329 329 329 329 330 330 330 330 329 329 330 330 330 334 335 334 334 334 335 337 337 333 332 332 331 330 332 333 333 334 332 329 329 329 330 331 331 330 330 331 331 329 331 332 331 331 332 332 332 333 333 331 331 331 332 333 333 335 337 337
310 309 309 309 308 309 311 311 312 312 312 312 313 320 325 322 321 322 322 324 325 327 328 328 328 328 329 329 329 328 328 329 329 330 331 330 329 329 330 330 330 333 335 334 333 334 336 337 335 332 332 332 332 331 332 333 333 335 332 328 330 331 331 332 331 331 330 330 330 330 332 332 331 332 332 332 332 333 333 332 332 332 333 333 333 335 336 336
310 309 309 308 308 310 310 312 316 314 313 314 316 321 322 320 320 322 323 324 326 328 329 328 328 328 329 330 329 329 328 329 328 331 331 330 330 330 330 331 331 331 334 334 335 334 334 334 333 333 332 333 333 332 333 333 331 333 332 329 330 332 332 333 332 332 332 331 331 333 336 335 334 333 331 331 332 333 333 333 334 333 333 333 333 335 337 336
310 309 309 308 309 310 310 316 321 317 317 319 320 322 321 320 321 321 323 326 329 330 328 329 329 328 330 329 328 328 328 329 328 330 332 330 330 329 330 331 331 333 334 333 334 334 333 332 333 333 334 334 334 333 333 334 331 330 332 331 331 331 331 333 334 333 336 336 334 334 338 338 336 334 332 332 332 333 334 334 335 334 333 334 334 335 337 336
309 308 309 308 309 310 310 317 323 317 316 320 320 321 319 320 322 321 325 329 330 331 329 329 328 328 329 328 328 328 326 329 329 330 331 330 329 329 330 330 331 334 333 332 333 333 333 333 333 334 335 335 335 335 333 333 331 330 332 332 332 332 332 332 335 334 335 335 333 332 338 339 337 336 334 333 333 333 334 334 333 332 332 332 333 335 336 336
309 309 309 308 309 310 309 313 316 314 316 320 320 320 318 320 321 322 329 330 328 330 329 328 328 328 328 328 329 327 326 328 330 330 330 329 329 330 329 330 332 333 333 333 332 332 332 333 333 334 334 335 336 335 334 333 332 331 332 333 333 333 334 333 334 335 334 335 334 333 336 339 338 337 334 333 334 334 334 333 332 331 331 331 333 335 336 336
308 308 308 309 309 309 310 311 311 313 320 322 320 319 319 320 321 324 331 331 329 329 329 329 329 328 326 327 327 326 327 328 328 330 331 330 329 330 330 331 332 332 332 332 330 331 333 334 334 334 334 333 334 334 333 333 333 333 333 334 333 333 335 333 333 334 335 338 339 335 334 338 339 338 335 334 334 335 334 332 330 331 332 333 333 334 335 337
308 308 308 309 309 310 311 314 315 314 318 319 318 319 319 320 323 326 330 330 329 327 328 328 327 328 327 327 328 328 329 329 329 330 331 330 330 330 331 331 331 331 331 334 335 333 333 335 333 333 335 334 333 333 332 334 334 334 333 333 334 334 334 335 335 334 333 336 338 335 336 340 340 338 338 337 336 335 334 331 330 331 332 333 333 333 335 337
308 308 308 309 310 310 312 319 322 316 315 318 319 320 320 321 326 328 326 327 327 326 328 326 326 328 327 326 327 329 329 329 330 330 330 330 331 330 330 331 331 332 332 337 340 336 332 335 333 333 335 334 333 333 333 333 334 333 334 335 335 335 333 335 334 334 333 334 334 334 336 339 340 339 338 338 335 333 331 330 331 331 331 333 334 334 336 336
307 308 308 309 310 309 311 320 324 319 318 319 317 318 321 325 328 327 327 328 325 326 327 326 326 326 326 326 326 327 328 327 329 329 329 330 331 331 331 331 332 332 332 334 338 336 332 334 333 333 334 332 333 333 333 334 333 334 336 335 336 337 336 334 333 334 334 334 334 335 336 336 339 340 338 337 335 331 330 331 331 332 332 334 335 335 336 335
307 308 308 310 310 310 313 320 323 321 318 314 313 319 325 328 328 325 327 327 323 326 327 326 327 325 324 324 325 327 325 325 327 329 329 328 330 330 330 331 331 330 329 331 332 333 332 333 333 332 333 332 333 333 333 334 334 335 335 333 335 338 336 332 331 333 336 334 334 336 337 336 338 338 337 337 335 331 330 330 331 332 333 334 335 335 335 335
308 308 308 310 310 312 316 321 319 316 311 310 315 323 326 325 325 324 325 325 324 326 326 325 325 324 323 323 325 328 325 325 328 328 328 329 329 331 331 331 331 330 330 331 330 329 330 332 331 333 336 333 333 334 334 334 334 335 333 333 336 339 337 333 331 334 337 335 334 335 336 337 339 338 336 336 335 330 329 330 331 332 333 334 335 335 335 335
308 308 309 311 311 313 320 323 319 312 309 314 321 325 325 323 322 322 323 325 325 326 325 324 324 323 324 324 326 326 323 325 328 327 327 328 329 331 332 330 330 331 331 331 329 328 328 331 333 334 337 336 334 334 334 334 334 334 334 334 335 336 337 337 337 339 337 332 332 334 335 337 338 337 336 336 336 331 329 330 330 331 333 333 335 335 335 336
308 309 309 310 310 315 321 322 319 311 310 319 325 325 324 321 320 321 323 325 325 326 325 325 324 323 324 326 328 327 325 325 326 326 328 327 329 331 330 330 331 330 331 329 328 330 328 330 332 332 334 335 333 333 333 333 334 335 334 333 334 335 337 336 337 338 334 330 333 335 335 336 336 336 335 336 336 332 329 331 331 331 332 333 334 335 335 336
309 311 312 313 312 317 323 322 317 310 312 321 325 323 323 323 321 322 324 325 325 325 324 324 325 324 323 325 327 328 328 327 325 326 328 329 330 329 329 331 331 329 331 329 329 334 332 331 330 331 331 332 333 332 332 332 333 334 333 332 333 333 337 335 333 331 330 334 337 335 335 337 336 336 336 336 337 335 332 334 334 334 333 334 335 335 335 335
310 312 317 321 322 324 327 322 316 312 315 322 323 323 324 323 322 321 323 325 324 324 323 321 324 324 323 324 325 328 327 326 327 326 326 328 330 329 329 331 330 329 330 329 330 333 334 331 330 331 332 332 332 332 332 333 333 334 332 331 334 335 337 336 332 330 330 334 337 335 335 336 335 337 337 336 338 338 336 336 336 336 336 336 337 338 338 336
309 310 317 324 327 328 327 322 318 317 321 323 323 324 324 321 322 321 323 324 322 324 323 322 325 326 324 324 324 327 327 325 327 326 325 328 329 328 330 330 330 329 328 330 332 331 334 332 332 331 332 332 332 332 332 332 332 334 333 332 334 337 337 336 333 333 332 333 337 335 334 335 335 337 337 336 338 338 337 337 336 336 336 337 338 338 337 337
309 311 317 324 328 327 324 321 322 322 324 325 324 325 324 321 322 322 323 324 322 323 324 324 327 326 326 325 325 327 327 325 326 327 325 327 327 329 330 328 327 328 328 331 333 331 335 333 330 331 332 331 332 331 330 332 333 333 334 334 334 335 336 333 332 336 335 332 333 335 335 337 337 337 337 336 336 336 337 336 336 336 336 337 337 336 335 337
312 317 322 327 327 325 322 322 324 326 326 327 326 325 324 322 324 325 325 324 324 324 325 325 326 327 327 327 327 327 327 327 327 327 326 327 328 328 329 328 325 326 328 330 331 331 333 331 329 331 332 330 330 331 331 332 332 332 333 334 334 333 335 334 332 337 338 332 330 334 337 338 338 336 337 336 335 336 336 336 336 336 335 335 336 335 336 337
316 323 326 329 327 324 323 324 326 327 326 328 327 325 324 324 325 326 325 325 324 324 324 324 325 327 327 327 328 327 327 328 327 327 328 327 327 327 327 327 326 325 328 330 331 331 331 331 330 330 330 329 329 331 332 332 333 333 334 334 334 333 336 336 333 333 336 334 331 334 338 339 337 335 336 336 336 336 336 336 337 337 335 335 336 336 337 338
319 324 327 330 328 325 325 325 326 326 326 327 327 325 325 324 324 324 325 326 325 323 324 324 324 326 327 328 328 328 328 328 327 327 328 327 327 328 327 327 326 326 328 329 330 330 331 332 331 329 330 330 331 331 331 331 332 333 334 335 334 335 335 334 333 332 332 335 335 333 335 337 337 335 336 337 337 337 337 337 338 337 336 336 337 337 337 338
319 322 327 330 327 325 325 326 325 326 327 327 326 325 325 325 324 324 324 326 326 324 325 326 325 327 327 328 328 329 329 328 327 327 328 328 328 328 329 328 327 326 328 328 327 327 331 334 332 329 330 330 330 332 332 332 332 332 333 334 334 336 333 331 334 334 331 333 333 331 334 337 336 336 337 337 337 336 337 337 337 336 336 336 336 337 336 336
319 321 327 328 324 324 325 326 325 325 327 326 325 325 325 325 325 325 325 326 327 327 327 327 327 327 328 328 328 329 329 327 326 327 327 327 328 327 329 329 326 326 328 327 326 327 330 333 331 328 330 331 331 332 332 331 331 332 333 335 336 337 336 334 334 332 331 332 331 332 335 337 336 335 336 336 336 336 336 337 337 337 337 336 337 337 336 336
323 322 328 328 324 325 325 325 326 326 326 327 326 326 325 325 325 325 325 327 328 328 328 327 328 328 327 329 329 329 329 328 328 329 328 327 327 328 328 327 327 326 327 328 328 328 330 333 332 328 329 332 332 332 333 332 332 333 332 333 336 335 336 338 335 330 332 333 332 333 336 337 337 335 335 336 336 336 336 336 336 337 337 336 337 337 336 336
326 323 326 327 324 324 324 323 325 326 327 328 327 327 325 325 327 326 325 326 327 327 327 327 328 328 327 328 330 330 329 328 329 329 329 329 328 328 327 327 326 328 327 327 328 330 331 333 332 330 329 332 332 333 335 334 333 333 331 332 335 334 335 338 336 332 333 334 332 334 336 338 337 335 336 337 336 336 336 336 336 337 336 336 336 336 336 336
325 323 323 325 325 323 322 322 324 323 325 327 327 327 326 326 327 327 326 326 326 327 327 328 328 327 328 328 329 330 329 329 329 329 329 329 327 327 327 326 327 328 328 328 328 331 330 328 331 333 331 331 332 333 334 333 332 332 330 333 335 334 335 337 335 334 335 334 334 335 337 337 337 335 335 337 336 335 336 336 336 336 336 336 335 335 336 336
320 322 325 327 326 325 323 324 325 323 323 326 326 326 326 326 326 327 327 326 327 327 327 328 328 327 327 328 329 329 329 329 329 329 329 329 327 327 326 326 327 328 328 328 328 331 329 327 328 331 329 329 330 331 332 332 332 332 332 333 334 334 335 336 336 336 336 335 334 336 336 337 337 335 335 336 336 335 335 336 336 336 335 335 334 334 335 335
321 321 325 325 325 326 326 328 328 326 326 326 326 326 326 326 326 327 328 328 328 328 326 327 327 326 326 328 328 329 329 328 328 328 329 328 327 327 326 327 327 327 327 327 327 330 330 327 327 328 328 328 328 331 333 334 333 333 333 334 334 334 335 336 335 336 337 336 336 336 337 336 335 335 335 336 336 336 335 335 335 335 335 334 334 334 335 334
323 324 326 325 323 324 327 329 327 325 326 327 326 325 326 326 326 327 327 328 328 328 328 328 327 327 327 327 328 328 328 328 328 329 329 328 328 327 327 326 325 325 326 325 325 330 329 327 328 328 326 327 328 331 334 334 334 334 334 334 334 334 335 335 335 336 337 337 336 337 338 337 335 334 335 335 335 336 335 335 336 335 334 334 333 333 333 333
322 325 326 325 323 322 324 326 325 323 324 326 326 325 324 325 327 326 327 328 328 327 328 328 328 328 328 327 327 328 328 328 328 328 328 328 328 327 325 325 325 324 325 324 326 328 327 327 328 328 325 325 326 328 332 334 333 334 335 335 334 334 335 335 335 336 336 337 337 337 338 338 335 333 335 335 335 335 334 335 335 335 334 334 333 332 332 332
322 323 324 322 321 322 323 323 322 323 323 325 327 326 325 326 326 327 328 329 327 326 327 327 327 326 327 328 328 328 328 327 326 326 326 325 325 325 324 324 325 324 324 325 325 325 326 326 327 326 325 324 324 326 331 331 330 332 336 336 334 334 335 335 335 335 335 336 336 336 337 337 336 335 336 335 335 335 335 335 334 332 333 333 333 332 331 330
Wind_Speed
12 13 12 13 12 12 12 12 12 12 12 11 11 11 10 9 8 9 9 9 9 10 10 10 10 10 11 12 13 14 12 11 7 7 9 8 6 9 10 7 5 5 2 4 3 2 8 9 4 5 6 10 13 6 4 7 7 6 5 6 6 8 7 8 8 9 10 11 12 7 8 7 8 8 11 12 11 12 13 16 18 21 18 5 2 4 3 4
12 13 12 13 12 13 12 12 12 12 12 12 11 11 10 9 8 9 9 9 9 10 10 10 10 10 11 12 13 14 14 11 8 9 12 13 9 9 8 6 4 2 2 4 1 6 9 7 4 6 9 14 12 3 3 5 4 6 6 5 7 8 8 9 10 12 11 11 11 12 9 7 6 4 7 9 10 12 11 13 15 20 18 7 7 8 4 7
12 12 12 13 13 13 13 12 12 12 12 12 11 11 11 9 9 9 9 9 9 10 10 10 10 10 11 11 14 16 14 10 10 12 13 14 10 8 6 5 3 2 2 4 2 7 9 8 5 8 11 11 8 3 5 3 5 8 5 5 7 10 12 12 13 14 13 13 10 11 12 9 3 3 3 4 9 12 10 12 12 17 18 11 11 12 9 8
12 12 12 13 13 13 13 13 12 12 13 12 11 11 11 10 9 9 9 9 9 10 9 9 10 10 11 12 14 16 14 10 8 10 13 13 9 6 4 5 3 3 5 5 3 7 5 6 9 12 10 8 10 8 7 5 6 6 5 7 10 12 13 12 15 15 15 15 12 10 12 9 3 4 2 4 8 9 11 14 13 16 18 12 10 12 11 12
12 12 13 13 14 14 14 14 13 12 12 12 12 11 11 10 9 8 9 9 9 9 9 10 10 10 11 11 14 16 12 6 3 10 12 10 7 4 4 3 2 4 6 4 5 9 9 11 12 14 9 6 13 10 5 8 9 5 7 11 13 13 12 13 16 15 14 15 15 12 10 7 2 4 5 7 8 9 12 15 14 15 15 12 14 15 12 17
13 13 13 13 14 14 14 14 13 13 12 12 12 12 11 10 9 8 8 9 9 9 9 9 10 10 11 10 15 15 8 3 3 9 8 6 5 4 4 2 3 2 6 3 11 14 13 11 10 13 8 5 12 11 9 14 13 7 9 12 14 14 12 14 16 15 15 13 12 9 5 5 8 8 7 10 12 14 16 17 17 16 15 17 19 18 16 19
13 13 13 14 14 15 15 15 14 13 12 12 12 12 12 11 10 8 8 9 9 9 9 9 10 9 10 11 14 14 10 8 7 8 5 6 5 4 4 1 2 3 4 5 14 13 11 8 9 15 11 6 10 12 13 15 13 11 9 10 14 14 13 14 15 15 15 13 11 9 5 7 12 11 8 11 13 15 18 18 19 19 18 21 20 20 20 18
13 14 14 14 15 15 16 16 15 14 12 11 11 12 12 11 11 9 8 9 9 9 9 9 10 9 10 11 12 12 12 11 12 9 7 7 6 4 4 1 1 2 2 10 14 7 9 10 12 14 11 8 11 13 14 13 11 11 9 10 12 13 13 13 14 14 13 12 12 10 7 11 15 12 9 12 14 15 17 15 14 17 18 19 18 19 20 17
14 14 15 15 15 15 16 17 16 15 13 11 11 11 12 12 11 10 9 9 9 8 8 9 9 9 10 11 11 10 7 9 13 10 10 8 6 6 5 3 2 1 5 13 12 7 8 12 13 13 13 13 13 13 14 10 7 9 11 13 12 13 13 11 12 13 10 11 11 10 10 13 14 10 9 11 10 10 10 7 9 14 17 19 18 18 17 13
14 15 15 15 15 16 16 17 17 16 14 12 11 11 11 11 11 10 9 9 9 8 8 8 9 9 9 10 11 7 4 7 11 10 10 9 8 8 5 4 5 5 8 11 12 8 10 13 13 14 15 13 11 13 14 11 10 14 15 14 14 13 12 11 12 11 10 9 9 9 10 12 10 6 5 6 5 5 6 7 10 12 15 19 18 17 15 11
14 15 15 16 15 16 16 17 17 17 15 12 11 11 10 10 10 10 9 9 8 7 8 8 8 9 8 8 10 8 4 6 12 13 10 9 9 9 5 6 10 10 10 11 13 13 12 13 14 13 10 9 12 14 14 13 14 17 15 14 14 13 11 12 12 10 10 6 5 8 10 13 10 8 8 6 3 4 6 8 11 12 13 15 15 17 14 11
14 15 15 16 16 16 16 17 18 17 16 13 11 10 9 8 8 9 8 8 7 7 7 8 7 8 8 10 14 13 7 6 9 12 11 9 10 9 6 8 11 11 11 12 14 14 14 14 15 13 11 12 13 12 12 13 16 16 14 12 12 12 11 11 10 9 10 4 3 7 10 10 7 7 9 6 3 4 6 8 11 13 13 14 15 19 12 10
14 15 15 16 16 16 16 17 18 18 17 13 10 9 8 7 7 7 6 6 6 6 7 7 7 7 8 11 12 9 7 6 8 10 10 9 9 9 10 11 11 11 12 14 14 14 14 13 13 15 15 15 12 12 15 17 18 15 10 8 8 10 9 5 6 8 9 4 4 6 7 4 2 4 3 2 2 4 7 9 12 11 12 15 16 18 12 13
14 15 16 16 16 16 16 17 18 18 17 14 10 9 8 7 7 7 6 6 5 7 7 7 7 6 7 10 8 8 10 7 9 14 12 11 12 12 12 12 12 12 11 13 14 14 14 14 14 15 15 14 14 16 16 13 12 9 6 5 5 7 4 7 6 6 8 6 4 6 5 4 7 5 1 2 2 4 7 10 10 9 11 16 17 16 14 14
14 14 15 16 16 16 16 17 18 18 18 14 10 9 9 8 8 7 6 6 6 7 7 6 6 4 8 11 9 10 13 11 12 15 14 13 13 13 13 13 12 11 12 13 13 13 13 14 14 14 14 14 15 15 10 7 6 5 4 5 5 4 4 5 3 5 8 7 7 7 4 3 7 7 2 3 3 3 8 12 10 9 11 15 16 16 15 11
13 14 15 16 17 16 16 17 18 18 18 14 11 9 10 9 8 8 8 8 8 8 5 2 4 6 7 8 8 10 12 11 13 14 15 14 14 13 12 12 12 11 11 12 12 13 13 14 15 14 14 12 10 9 7 5 5 4 5 7 5 3 3 3 2 6 7 5 7 7 5 3 5 6 2 4 3 5 8 11 10 10 12 13 14 15 13 14
13 14 14 15 16 16 16 17 18 18 18 15 11 10 10 9 9 9 8 8 7 6 5 3 1 7 9 6 9 12 11 10 9 12 14 14 14 13 12 11 10 11 12 12 11 11 12 14 13 10 9 7 5 7 7 5 4 4 5 6 6 3 2 3 0 3 6 5 6 7 5 6 6 6 2 3 4 5 8 10 9 9 9 7 11 15 14 21
13 14 14 15 16 17 16 17 18 18 18 15 11 10 11 11 10 9 6 5 5 4 5 6 5 5 8 11 12 8 7 9 7 10 13 13 13 13 13 12 11 11 13 11 7 8 9 9 8 6 7 5 4 6 6 7 9 9 6 6 7 1 2 4 2 1 5 6 6 5 5 6 7 6 3 1 1 3 8 10 11 13 10 5 9 17 19 24
13 14 15 15 16 16 16 17 18 18 18 13 9 10 10 11 9 5 3 4 5 4 3 6 12 4 5 11 13 4 3 8 8 8 11 12 12 11 12 13 12 11 11 8 3 4 5 7 6 6 6 5 6 7 5 10 13 13 10 9 9 6 5 4 2 5 5 6 5 5 5 6 7 5 3 3 2 4 9 14 16 18 15 10 12 20 24 24
13 14 15 16 16 16 16 17 17 18 16 9 7 8 9 10 5 1 1 9 13 11 10 8 15 13 11 6 9 4 4 8 8 8 9 10 10 10 12 11 11 10 8 6 3 1 3 6 7 6 7 8 11 11 8 11 13 13 11 9 8 7 4 5 3 7 4 4 4 4 5 5 5 5 4 4 4 4 5 10 13 15 14 14 18 20 23 24
13 14 15 16 16 16 16 17 17 17 13 6 5 6 7 11 6 4 7 13 17 13 15 13 14 16 12 2 3 4 7 8 10 9 8 9 9 8 8 9 10 8 5 5 3 1 2 6 8 7 7 9 12 13 10 11 12 11 9 7 6 6 5 5 2 4 2 3 2 2 3 3 5 5 4 4 3 1 1 3 9 9 10 16 19 20 21 22
14 13 15 15 15 17 16 17 17 14 9 5 3 3 6 10 7 9 11 13 17 13 16 15 13 13 9 6 6 7 9 10 11 11 10 9 8 6 4 7 8 4 2 5 4 2 2 6 10 8 5 8 11 11 10 11 11 10 7 5 5 4 6 5 4 3 3 4 0 0 1 3 4 4 2 3 0 3 3 5 10 7 14 14 17 21 20 20
14 14 15 14 15 16 15 17 16 10 7 5 4 4 8 10 8 11 11 11 15 14 18 16 13 12 10 9 8 8 10 12 10 9 14 9 8 10 7 7 8 3 5 5 5 3 3 5 10 9 6 8 11 11 10 9 8 6 5 4 3 1 1 2 3 2 3 3 3 3 3 2 2 3 2 4 2 4 5 7 8 5 14 14 17 21 21 22
14 14 15 14 15 15 15 17 13 8 8 7 6 7 10 10 9 12 12 10 10 10 15 13 11 12 7 4 4 7 10 12 9 4 13 8 8 9 8 9 10 5 3 4 7 8 6 8 10 9 7 8 11 12 9 7 6 5 3 3 4 3 4 4 3 1 2 2 3 5 4 2 2 3 3 2 2 5 6 5 1 6 11 14 19 20 22 24
14 14 14 14 14 14 15 14 8 9 12 10 9 8 7 8 8 10 10 7 6 6 10 8 8 8 4 4 5 7 11 12 7 5 11 9 9 8 8 10 9 5 4 4 5 8 7 9 10 10 10 9 11 11 8 7 7 5 0 2 8 9 6 2 5 4 1 1 2 4 2 2 2 3 2 1 2 4 2 1 3 7 7 11 18 19 21 23
13 14 14 14 14 14 13 10 6 8 12 11 7 6 6 7 8 8 7 5 4 3 5 5 6 6 5 7 7 8 10 5 0 4 8 8 8 8 8 8 6 5 8 6 3 3 5 5 5 6 10 10 10 9 7 6 6 5 4 7 10 10 9 6 1 1 2 2 4 4 1 0 2 3 2 2 3 2 2 2 4 6 6 9 14 16 19 23
13 14 14 14 13 14 14 11 8 9 9 6 4 6 7 7 8 6 4 4 3 4 5 5 4 3 5 6 5 8 7 2 1 5 6 7 7 7 7 6 6 6 7 6 3 2 5 7 5 5 9 7 6 5 5 6 6 5 8 11 12 9 9 9 4 3 3 2 4 4 2 1 1 2 1 2 2 1 3 4 3 3 5 7 10 10 16 22
12 13 14 13 12 15 16 14 10 7 7 8 6 7 7 7 7 5 4 4 1 3 3 4 3 4 7 6 6 9 7 3 4 5 5 6 7 6 7 7 9 8 5 6 7 4 4 6 6 7 8 5 5 6 5 6 6 7 11 12 11 9 9 8 5 1 0 1 3 4 3 1 1 1 1 2 2 3 4 3 1 2 5 7 7 8 13 20
12 13 14 12 10 13 14 11 10 8 7 9 9 7 7 7 5 3 4 3 1 3 1 2 3 5 8 9 9 9 8 5 3 3 5 8 8 6 7 9 11 12 8 8 8 7 5 2 3 4 4 5 8 7 6 6 6 8 11 12 10 8 7 4 3 2 1 2 0 2 3 1 2 2 1 1 2 4 4 2 2 3 3 1 7 10 14 20
11 12 14 12 9 11 12 8 9 8 7 9 9 7 8 6 4 5 4 2 1 2 2 3 3 5 9 9 7 7 8 7 5 4 6 8 9 9 8 9 10 10 6 8 3 8 8 2 1 2 5 7 9 8 7 8 7 8 9 9 8 7 4 1 2 2 2 2 3 4 6 4 2 4 2 1 3 4 5 4 3 1 2 6 15 17 19 21
11 12 13 12 9 10 11 7 5 7 8 9 8 6 7 5 3 5 3 2 3 1 3 5 3 4 7 5 2 4 7 5 3 5 6 6 6 6 6 6 5 6 5 3 1 8 8 4 3 6 8 6 7 7 8 6 5 5 6 7 7 5 3 1 2 1 1 2 2 5 8 5 4 4 3 3 5 5 6 7 5 2 8 16 22 22 21 21
11 12 13 12 11 11 10 6 4 7 9 8 6 6 6 5 5 5 3 3 3 1 1 5 3 2 6 5 2 4 8 4 1 4 5 4 1 1 4 3 3 4 4 4 4 5 5 4 4 5 7 4 3 7 6 4 4 4 5 6 5 3 2 1 1 2 1 2 2 5 8 7 5 5 6 5 6 6 7 9 10 8 13 19 22 22 21 21
10 13 12 11 12 11 9 8 8 10 8 5 6 7 6 4 4 4 4 4 2 0 2 6 6 4 6 6 3 4 8 4 1 3 4 4 2 1 3 2 1 3 4 5 5 5 5 2 2 3 6 3 4 5 5 4 6 6 5 5 4 3 4 4 3 2 2 4 5 4 6 4 3 5 6 4 5 8 10 11 13 14 14 16 19 20 20 20
10 12 11 11 12 10 8 8 8 7 6 4 6 7 5 5 5 5 5 4 2 4 5 3 6 7 5 5 5 4 5 5 4 6 6 4 1 1 4 2 1 3 5 5 4 5 5 3 3 5 7 7 4 1 2 4 5 5 5 4 3 3 4 5 3 2 2 4 7 5 3 2 2 5 4 2 4 9 12 11 13 15 15 16 17 18 19 18
10 11 12 12 11 10 8 7 7 5 5 5 6 6 5 5 5 4 3 3 3 5 4 0 6 8 3 2 4 2 2 4 6 7 6 5 2 2 4 3 4 6 7 5 5 6 5 5 7 11 11 3 3 2 2 5 3 2 2 2 3 2 1 2 3 1 3 4 6 6 4 4 5 8 8 3 4 9 12 11 10 11 13 16 17 18 18 17
8 9 10 10 9 8 8 6 6 4 4 6 6 5 6 6 5 3 1 1 6 6 7 5 5 5 3 2 4 3 1 4 8 6 3 4 4 5 7 6 7 9 8 7 5 4 5 6 9 9 8 1 6 4 4 5 3 1 2 2 5 3 2 0 3 1 3 5 3 3 5 4 3 8 9 6 5 8 10 9 8 8 7 9 12 14 18 18
8 8 9 10 8 8 8 6 4 4 5 7 6 5 6 6 7 5 1 0 4 4 6 6 3 3 4 3 4 5 4 5 8 6 3 4 4 4 7 7 8 9 9 9 5 3 3 6 8 8 5 6 9 7 3 2 1 2 4 6 7 3 2 1 2 0 3 5 3 4 7 5 2 4 7 8 7 7 8 8 8 8 6 5 6 8 11 15
7 8 11 11 9 10 10 7 4 5 7 7 7 8 9 8 7 6 4 5 5 4 4 3 1 2 3 3 4 6 7 6 6 6 5 4 3 4 7 7 8 11 12 10 6 3 4 4 5 7 9 10 10 6 3 1 2 2 5 7 5 2 1 2 2 2 2 4 3 4 7 6 4 4 6 9 8 7 7 6 7 8 7 7 6 5 7 10
6 7 9 10 10 11 10 7 5 7 8 6 7 7 6 8 8 4 4 6 6 5 3 2 1 1 2 4 5 6 7 7 7 6 4 3 3 4 7 7 7 12 13 10 6 4 3 2 4 7 11 11 7 4 5 5 2 2 3 5 4 2 3 5 3 1 1 2 3 4 4 5 5 4 5 8 9 8 8 6 5 6 8 8 7 7 8 8
5 6 6 9 12 11 9 7 6 7 7 6 8 7 4 6 4 1 2 5 5 4 2 2 2 2 3 5 4 4 7 7 7 6 4 4 4 3 7 9 9 12 13 9 7 4 3 3 5 7 9 7 4 4 6 7 6 5 4 4 5 3 4 4 2 1 1 1 3 5 4 3 2 2 4 8 9 9 10 8 5 8 12 11 9 11 12 10
6 7 6 12 12 9 8 6 6 7 7 6 8 9 6 5 4 2 3 5 5 5 4 4 4 2 3 5 3 4 6 7 7 6 4 5 5 4 8 11 11 11 11 7 6 5 3 5 6 5 6 4 2 2 5 7 7 5 4 4 6 5 3 2 1 3 2 2 2 3 4 2 1 1 4 6 6 8 11 10 7 11 16 13 10 12 13 11
9 7 6 13 14 10 8 7 7 8 7 6 8 9 4 3 5 8 7 4 4 6 5 3 4 3 2 2 3 5 5 6 7 6 5 6 7 6 8 12 13 12 10 7 7 6 4 4 5 6 6 4 2 2 2 7 8 4 3 3 4 5 2 1 3 4 3 1 1 3 4 3 1 2 5 6 7 10 12 12 11 14 16 13 11 11 11 11
11 7 6 12 13 12 8 6 7 8 7 8 10 10 5 4 6 5 4 3 3 3 2 1 2 2 1 1 2 4 4 4 7 7 7 7 6 7 9 11 11 11 8 6 6 7 4 2 5 6 4 3 3 3 4 6 6 5 4 4 3 7 6 2 2 3 2 1 1 3 4 3 3 3 6 8 10 12 14 13 14 17 16 14 14 13 12 14
12 9 8 11 11 11 9 6 6 6 6 9 11 8 4 5 6 4 3 1 1 2 2 4 3 1 1 1 2 5 4 4 6 7 8 7 6 9 9 9 9 8 7 7 6 7 4 2 4 6 4 3 2 3 4 5 5 6 6 7 7 9 13 7 2 2 2 3 2 2 3 3 4 4 7 10 10 11 14 15 15 16 16 15 15 15 16 17
10 7 8 12 12 11 12 10 7 6 5 6 8 8 7 6 6 5 5 4 2 1 2 3 4 4 3 1 2 5 6 5 5 6 7 7 7 10 9 9 10 6 7 9 8 8 4 1 3 5 4 4 4 2 3 4 6 5 7 10 11 10 13 8 3 2 3 4 3 3 5 6 5 5 8 9 10 11 13 15 15 14 16 17 16 17 18 18
6 5 7 10 13 14 15 14 12 8 5 3 5 8 9 7 5 5 3 5 3 1 3 4 3 3 3 3 4 5 6 7 6 5 7 7 6 8 10 13 13 6 9 7 10 7 4 2 1 2 4 2 4 8 4 5 5 6 9 13 12 13 12 7 3 3 4 4 5 6 8 9 8 8 8 8 10 11 11 14 16 14 15 17 18 19 19 18
6 5 6 6 8 11 13 14 13 9 5 4 3 5 8 8 4 5 3 3 2 2 4 3 2 3 3 4 4 5 6 7 7 6 7 7 7 8 11 12 9 6 5 7 9 4 4 5 1 2 8 6 8 9 2 9 6 7 11 13 13 12 11 8 5 5 5 2 5 7 10 11 9 9 10 9 10 10 10 13 16 15 16 18 20 21 20 19
8 8 7 4 4 5 7 9 11 10 8 6 4 4 6 7 6 3 3 1 3 3 3 2 3 5 5 4 4 4 6 6 6 7 6 7 8 8 9 9 7 3 3 7 7 5 3 5 4 5 9 9 8 6 6 8 6 8 11 12 13 13 11 9 7 8 7 2 5 7 9 10 9 9 10 9 9 11 13 14 16 17 18 20 22 21 19 20
10 10 6 6 7 5 3 6 8 7 7 5 3 4 5 6 8 6 2 0 2 3 2 1 4 5 5 4 3 3 5 5 5 6 6 7 8 7 7 6 6 6 7 6 5 4 2 4 6 8 8 9 10 7 10 9 7 10 11 12 13 14 13 9 7 8 9 8 8 9 11 10 8 9 11 9 11 15 17 16 16 18 20 22 22 21 19 20
7 5 3 5 10 8 5 3 7 6 4 3 3 4 6 6 7 6 3 2 3 3 2 2 4 5 4 3 3 3 4 4 5 5 5 6 6 5 5 5 5 7 8 7 4 3 3 4 7 9 7 7 8 5 10 5 5 10 11 12 13 14 14 9 8 7 8 8 11 11 11 9 7 10 14 13 14 17 17 16 15 16 19 22 23 22 21 20
6 3 4 6 6 7 7 6 7 7 4 5 5 4 6 6 6 5 4 3 4 4 3 3 3 3 4 4 4 4 5 5 7 7 7 8 7 7 6 6 8 8 7 7 5 3 4 5 6 8 5 5 7 3 8 7 6 10 11 12 13 12 9 5 5 7 6 5 8 8 7 6 5 9 13 13 14 17 17 16 16 16 17 19 22 23 23 21
6 7 10 8 4 5 7 7 8 7 5 5 4 3 7 7 4 4 3 1 3 4 2 2 2 2 3 3 3 4 6 7 9 10 11 12 12 12 11 10 11 10 7 6 5 5 5 5 5 6 5 5 8 6 3 4 4 5 7 10 11 10 9 5 7 10 7 4 3 3 4 6 6 7 9 9 10 14 16 15 20 23 19 18 21 23 23 22
Wind_Direction
350 350 348 347 342 337 333 326 320 313 310 308 310 308 306 309 302 295 292 294 299 302 307 309 313 316 321 325 323 326 327 315 280 250 269 273 269 291 319 327 322 326 14 71 100 212 255 247 238 276 278 254 246 253 222 234 273 284 265 260 271 278 299 333 328 310 306 312 314 338 26 356 312 331 354 339 320 330 313 292 295 295 302 319 257 250 210 237
349 348 348 346 343 339 335 327 320 313 309 307 308 308 308 312 306 297 293 295 299 303 307 309 312 315 320 323 323 324 324 314 271 245 252 254 266 295 325 340 334 340 115 102 175 268 296 298 299 294 282 267 259 191 226 258 233 249 260 266 277 289 323 337 315 307 300 303 310 308 328 344 323 337 356 332 305 311 302 288 287 282 285 302 304 294 269 248
346 346 346 345 343 341 337 330 322 314 311 307 305 306 306 310 308 300 293 296 299 301 308 309 311 314 320 322 321 322 324 315 275 254 238 236 261 293 331 350 4 52 143 140 238 291 316 315 299 287 288 280 269 231 277 294 212 252 277 269 289 307 322 323 306 310 313 308 305 301 303 315 23 74 326 298 289 289 276 277 282 280 287 308 303 293 291 256
342 343 344 343 343 343 341 335 324 316 312 308 306 303 304 307 307 302 294 298 298 301 308 307 311 315 320 321 320 323 322 309 270 236 222 232 264 287 329 3 48 99 117 119 259 293 303 276 266 268 286 298 279 262 254 256 248 285 317 286 293 304 307 312 309 319 328 319 312 305 296 294 110 117 260 262 279 272 262 260 254 270 288 311 300 290 289 266
338 341 341 341 342 343 343 338 328 319 313 309 307 303 303 305 305 304 295 297 295 300 307 307 313 313 317 320 318 323 322 317 198 197 217 243 268 286 325 5 57 129 130 119 249 251 245 253 262 259 261 287 288 284 250 292 325 320 293 287 292 298 303 314 317 323 329 324 323 324 326 321 210 188 220 234 256 256 264 260 252 268 284 299 294 292 281 268
334 337 338 340 340 341 342 339 333 322 315 311 307 304 303 302 306 305 296 296 293 298 305 307 311 310 317 316 314 318 308 313 180 205 243 273 268 285 308 4 51 158 167 224 258 256 262 264 271 279 292 273 281 305 304 314 330 306 290 295 296 301 305 312 316 318 317 310 308 308 328 316 267 255 239 238 252 255 263 268 271 274 277 289 288 285 269 264
331 334 336 338 338 340 341 339 335 327 318 311 308 305 302 302 305 304 297 295 292 297 301 304 308 309 313 311 314 309 274 267 229 214 278 299 274 278 282 326 75 145 150 232 254 276 314 319 309 308 321 294 284 319 324 320 313 292 295 295 296 303 304 313 316 316 315 307 304 296 246 231 254 263 248 243 253 257 260 263 268 264 268 284 283 273 258 257
328 331 334 336 337 338 338 338 337 331 321 311 306 304 302 303 303 303 299 294 291 295 296 300 306 307 311 310 312 299 266 244 219 229 300 296 273 270 262 282 107 128 159 247 256 312 339 318 325 320 322 320 315 323 316 312 303 289 292 296 301 304 308 319 316 313 314 310 309 302 269 253 261 268 258 252 257 261 259 253 259 262 268 279 277 263 250 255
326 329 332 335 337 337 338 337 336 334 326 313 305 300 300 301 302 301 295 294 292 290 293 297 301 305 308 308 308 296 263 219 215 246 296 292 276 271 260 265 289 279 246 259 278 349 326 303 323 321 321 325 315 309 298 296 301 295 296 300 302 302 310 317 310 313 314 309 303 289 276 269 268 272 266 256 257 267 267 262 269 273 275 275 271 259 248 258
327 329 331 335 337 337 337 336 337 338 331 318 308 300 297 298 299 297 293 293 290 288 293 292 298 304 302 309 308 291 262 244 244 262 286 287 276 269 264 229 231 245 250 267 285 311 306 302 314 314 323 324 305 301 299 298 293 288 290 293 294 299 311 310 302 309 304 296 294 285 279 276 268 256 249 236 233 260 284 297 286 277 277 274 270 260 246 245
328 329 331 334 336 337 337 336 337 339 335 326 315 305 299 297 295 293 292 291 289 289 288 287 296 299 296 298 282 266 273 269 274 286 284 278 277 275 267 213 215 236 258 275 284 301 310 307 314 313 312 311 305 302 299 301 291 288 295 294 295 298 305 303 297 303 299 290 300 295 284 275 260 238 242 238 233 251 262 277 277 273 273 269 267 262 244 235
328 330 331 333 335 337 337 337 338 340 339 332 322 316 308 302 297 295 294 291 289 284 284 289 293 295 303 287 263 259 269 249 259 282 281 272 277 275 248 223 228 243 265 280 289 310 318 311 314 308 300 303 305 302 300 304 297 295 301 299 305 305 296 296 294 290 284 287 349 314 285 263 244 251 258 246 245 261 256 262 265 268 270 265 264 263 248 226
329 330 330 331 334 337 338 338 339 340 341 335 327 323 318 314 305 300 296 288 283 281 282 287 292 297 301 287 269 249 245 235 223 237 251 248 246 245 235 233 242 252 268 280 289 307 311 306 304 299 298 295 292 298 300 302 300 300 308 316 319 302 297 328 324 295 284 305 354 308 285 284 332 322 286 229 248 262 264 262 256 261 265 264 270 266 247 218
329 329 329 330 331 336 338 338 339 340 342 338 328 327 328 321 310 304 296 287 279 278 283 285 295 296 278 282 277 243 244 248 221 219 225 225 225 235 238 238 248 258 271 279 287 295 298 305 303 294 291 284 284 287 286 294 300 298 310 310 281 276 318 29 10 313 289 284 279 268 275 328 339 330 149 170 261 272 275 269 259 262 260 265 275 266 246 216
328 328 328 327 329 334 337 338 340 339 341 338 329 329 330 318 308 302 288 285 277 276 287 291 296 285 271 276 260 255 267 253 227 224 223 222 226 238 240 240 249 258 268 275 283 289 298 311 306 296 295 294 293 288 286 298 288 274 276 273 265 274 326 6 345 285 278 258 228 246 282 325 318 313 117 145 267 269 270 274 269 265 264 272 280 265 247 204
325 326 327 326 327 331 336 339 339 338 340 338 328 324 326 316 306 301 288 279 273 275 280 299 332 304 283 279 242 252 276 252 231 227 224 225 229 241 250 246 250 260 270 274 273 278 292 297 291 293 296 300 307 299 301 307 292 281 257 260 272 255 264 300 250 234 259 261 215 231 285 301 302 312 83 131 240 251 258 268 269 266 266 273 279 262 231 171
323 325 326 326 324 329 336 339 338 336 336 335 325 320 321 309 301 304 289 266 263 274 258 207 346 279 257 256 250 251 253 236 226 221 220 225 229 242 255 254 258 265 275 283 283 289 299 296 294 297 288 292 308 293 294 303 307 292 253 261 272 206 202 289 330 198 242 276 249 237 270 282 299 315 326 142 203 254 276 275 283 286 270 268 274 253 203 164
323 324 325 325 324 329 334 337 337 333 332 333 322 317 317 305 303 301 279 261 274 290 276 216 181 255 249 227 243 257 225 206 210 217 218 223 230 242 252 258 268 278 284 289 304 326 324 307 304 298 284 279 276 281 291 291 301 310 309 309 303 323 22 320 312 178 222 259 278 271 284 296 306 312 325 348 214 286 306 301 310 311 304 312 264 229 189 166
322 323 325 325 325 328 333 335 335 332 331 330 317 319 323 316 307 289 271 273 259 241 277 202 183 250 290 208 219 253 194 199 204 214 215 221 230 239 248 257 265 275 287 286 297 336 319 302 292 282 288 286 284 292 277 276 297 315 316 313 317 332 8 21 268 256 239 245 275 294 305 318 313 315 7 14 15 14 342 326 321 317 311 284 227 199 179 168
320 323 324 324 326 328 330 332 333 334 333 329 328 330 334 336 322 197 304 273 260 253 271 235 200 251 293 202 187 183 199 203 204 218 220 219 227 241 244 250 260 257 263 279 288 315 280 284 283 288 302 289 294 307 297 289 304 313 309 311 325 325 1 75 199 250 248 244 279 312 303 314 317 332 23 32 37 40 356 325 309 308 294 238 200 177 168 165
319 321 322 324 327 326 327 331 332 335 335 331 341 331 331 353 358 344 332 288 276 262 258 251 223 251 289 296 181 214 245 227 212 221 218 209 215 242 236 223 253 265 269 288 277 218 259 278 287 297 304 287 293 308 305 300 302 298 301 312 321 325 3 42 253 262 292 264 283 314 291 351 352 348 16 24 38 6 294 297 287 275 237 205 176 159 155 153
317 318 321 324 326 326 325 330 332 334 339 334 339 327 325 353 354 327 326 299 288 261 240 248 242 251 264 260 250 249 265 252 230 216 198 200 209 230 243 224 256 271 194 252 248 235 267 275 293 301 295 291 299 309 310 310 305 290 289 306 312 339 10 350 276 227 252 267 112 350 300 54 349 319 337 344 303 273 282 267 272 214 181 179 156 150 145 142
315 316 320 324 326 325 323 330 334 331 337 329 306 291 303 326 331 321 316 292 286 258 236 235 234 247 240 232 236 236 256 267 267 208 179 196 227 232 257 267 281 271 189 251 281 286 304 303 315 320 307 305 310 313 317 313 300 292 305 317 301 267 281 282 266 228 255 290 86 66 1 53 315 301 295 312 272 264 262 242 262 157 146 155 151 147 142 143
313 314 319 325 326 323 325 332 337 342 346 345 338 313 297 309 318 325 320 284 275 254 235 225 229 253 246 201 216 239 257 268 283 182 167 207 260 247 259 276 291 294 244 314 312 290 319 349 335 320 303 308 312 313 321 321 309 322 341 320 329 307 232 169 122 274 278 346 80 76 15 329 309 303 274 311 247 257 260 220 200 84 119 142 146 141 140 145
310 313 317 323 324 321 328 336 350 0 339 321 342 342 305 308 314 324 323 276 266 245 219 208 223 245 240 211 230 262 273 264 258 175 173 220 274 276 280 285 293 301 292 314 301 286 320 0 349 325 312 309 308 313 326 329 318 322 25 297 328 332 316 108 138 197 216 44 145 112 40 308 299 298 285 6 242 252 272 173 92 82 93 118 132 134 137 142
307 312 314 320 322 319 327 337 340 333 310 286 310 329 303 312 316 322 318 268 271 233 183 177 210 225 230 225 225 252 269 278 194 159 187 228 268 278 286 295 291 303 315 303 263 281 317 349 3 317 299 302 311 324 329 326 315 316 8 350 329 330 328 336 76 185 357 55 166 169 127 254 288 303 315 335 309 321 47 88 94 94 84 94 119 129 135 141
306 309 310 316 321 321 321 322 308 298 303 303 304 313 315 312 307 317 300 257 249 221 185 164 183 236 249 221 216 253 269 8 283 214 205 239 260 258 263 290 298 307 331 313 285 1 332 334 7 313 293 302 317 314 306 321 316 319 357 348 323 320 317 318 351 37 358 63 136 203 259 121 276 329 13 295 282 61 76 95 94 85 91 107 118 120 130 141
303 304 306 313 319 322 318 315 309 286 307 337 321 306 315 303 303 310 278 277 240 207 206 164 171 271 261 226 221 259 285 324 254 209 181 231 253 249 252 277 298 298 308 313 314 356 354 341 5 344 320 317 313 311 315 320 308 320 345 334 313 309 306 310 334 36 322 53 125 209 237 84 359 328 8 262 185 113 98 97 87 75 84 106 125 127 134 139
299 299 302 307 315 320 313 311 314 282 283 324 318 305 306 297 301 281 250 278 236 188 226 174 185 239 246 236 225 238 268 268 224 166 177 230 240 232 265 297 306 300 322 3 348 335 340 350 12 352 324 295 297 314 329 317 301 318 328 319 309 296 291 328 358 326 313 311 292 168 178 135 36 22 2 263 152 115 117 98 71 87 61 152 168 153 143 140
293 295 297 300 311 316 307 315 334 317 298 308 306 301 296 286 274 255 233 273 299 157 205 241 204 215 233 244 232 225 251 252 235 218 210 233 234 217 249 301 308 298 336 49 28 293 289 260 162 236 231 267 294 303 311 310 306 318 319 313 318 302 274 90 70 309 321 295 331 80 137 167 81 43 18 111 140 133 128 112 98 70 17 154 158 147 139 140
286 288 291 294 301 301 297 308 351 342 317 299 294 292 285 269 248 261 236 249 278 188 228 260 237 233 257 276 275 244 261 263 253 253 236 236 231 216 248 296 323 310 327 40 247 270 271 245 215 235 239 271 306 301 306 314 302 305 313 315 325 320 289 211 177 208 306 303 334 95 108 101 75 52 28 97 119 125 121 119 131 81 64 106 130 133 132 136
281 283 284 288 291 282 272 261 258 289 297 288 289 289 275 248 225 247 244 244 257 133 357 285 246 272 308 309 291 289 306 321 257 274 288 280 246 203 262 292 348 325 321 341 328 303 288 252 219 258 275 285 320 315 329 355 333 316 315 324 336 334 308 279 167 130 41 10 38 102 90 71 76 58 34 70 101 115 122 116 114 95 78 97 116 126 128 131
275 278 279 280 280 268 255 259 265 278 289 292 289 280 263 256 253 255 252 246 238 136 309 287 286 302 302 293 297 310 309 310 292 308 309 294 312 345 291 291 300 271 301 350 348 329 326 288 207 315 321 16 44 339 345 1 336 346 352 348 352 329 328 347 15 68 58 38 46 96 105 82 83 61 33 43 90 111 122 116 109 106 99 101 112 124 128 129
271 278 281 277 274 260 250 270 281 279 282 282 275 261 246 259 267 255 249 248 227 250 251 255 293 291 279 292 315 323 317 329 329 309 296 287 310 344 302 288 229 278 313 348 349 336 349 326 328 30 26 22 44 206 265 321 330 7 7 338 332 324 347 349 350 44 48 55 46 47 84 49 43 85 74 53 91 108 117 114 109 113 115 111 112 124 131 133
270 279 281 276 269 253 248 270 282 271 262 266 264 253 244 247 256 260 276 308 292 283 299 308 271 281 294 297 300 356 14 331 315 305 308 323 7 15 340 352 2 342 337 347 340 337 350 327 350 58 81 11 321 179 253 311 321 13 335 304 315 309 67 321 288 48 42 58 51 34 60 65 66 93 101 94 99 115 121 118 111 117 125 124 122 128 137 139
270 279 282 282 274 252 250 268 274 255 244 259 258 250 248 247 277 309 83 286 291 307 326 315 278 292 340 320 317 11 101 294 319 324 324 339 1 1 349 354 358 351 345 344 349 358 356 332 345 42 97 284 323 8 356 328 333 337 307 330 328 310 140 228 282 139 62 53 50 46 85 104 98 91 97 106 111 119 126 126 120 122 126 120 120 128 135 141
261 264 271 282 271 239 240 258 264 238 239 258 259 260 273 279 299 314 73 37 302 303 297 303 340 335 311 313 330 332 319 325 332 325 328 360 23 358 332 342 359 354 344 341 357 69 6 321 332 358 12 341 334 337 345 337 297 304 335 340 325 316 134 163 286 321 70 65 56 59 76 92 116 91 100 113 117 121 127 131 131 133 133 109 96 100 115 127
255 259 263 262 237 210 223 241 240 231 239 254 256 256 268 278 284 300 346 344 306 279 280 301 17 315 295 321 327 321 329 339 335 326 340 9 35 3 342 353 359 345 345 353 1 52 36 323 333 12 3 343 337 337 4 30 241 270 334 334 322 339 5 316 321 346 52 88 92 78 72 69 66 77 100 110 119 130 129 132 134 133 135 121 100 95 109 117
251 267 262 234 201 194 215 233 228 235 242 248 254 252 249 254 256 265 329 325 290 278 302 305 299 317 324 324 320 327 330 330 338 338 344 12 23 10 359 358 351 340 346 9 18 25 50 290 310 20 9 345 348 15 16 11 350 303 328 338 338 352 337 329 341 342 338 108 114 98 74 54 51 61 93 110 125 138 135 135 142 138 128 116 112 130 139 135
226 259 244 181 176 193 214 232 233 233 241 242 253 266 274 268 266 66 351 307 288 280 288 282 280 305 317 311 316 339 331 324 334 328 329 8 16 49 32 4 346 340 341 4 31 16 360 305 316 9 5 341 347 8 356 6 10 357 358 357 345 349 351 338 360 74 290 300 103 103 90 59 28 32 82 108 123 133 134 136 147 138 125 120 128 137 137 135
233 255 223 170 182 206 209 227 234 230 240 242 247 262 292 323 329 329 283 272 280 279 260 274 289 283 302 311 323 345 329 318 326 326 333 3 1 34 35 7 344 335 334 351 29 24 356 330 326 338 344 348 349 322 345 5 6 3 15 357 332 342 8 343 19 74 54 360 50 104 102 80 328 9 84 100 109 115 122 128 128 116 115 122 133 133 127 121
255 255 201 180 196 207 201 225 235 232 243 244 249 258 276 330 293 278 267 230 239 255 225 235 288 298 305 325 348 337 324 316 320 328 333 340 349 358 5 359 344 333 339 0 16 20 16 337 330 331 337 346 315 274 349 355 352 12 52 26 329 320 352 32 341 7 48 81 135 115 97 91 77 86 101 109 114 115 118 123 120 111 116 126 126 124 127 123
242 231 182 186 200 201 204 240 245 239 246 247 256 264 265 259 252 256 257 211 227 264 243 267 302 315 319 359 346 318 327 328 316 326 332 330 358 8 351 349 343 336 353 15 7 4 12 340 325 329 326 310 301 357 358 333 352 26 30 58 40 318 324 6 301 319 28 57 159 110 87 100 110 107 117 116 117 122 122 119 116 114 118 122 117 117 120 121
241 221 186 192 198 197 210 238 245 241 247 250 255 256 257 268 263 271 297 249 235 277 275 296 308 321 320 302 293 307 327 330 314 324 324 316 349 356 344 347 343 339 9 28 356 336 344 349 330 335 341 322 335 24 345 327 19 28 4 48 60 344 336 346 291 268 27 4 351 88 98 111 121 125 123 116 111 114 115 114 114 116 117 114 114 116 115 116
260 235 196 195 194 202 224 244 261 267 267 282 289 275 263 257 236 250 293 287 268 283 247 263 270 266 286 315 309 314 318 311 308 314 307 308 332 334 336 338 321 317 33 25 334 313 328 13 340 342 353 356 350 308 288 346 19 7 360 32 51 25 4 354 310 330 33 22 24 85 110 113 124 124 117 117 114 110 110 111 111 112 113 113 113 114 113 117
261 229 197 190 189 206 233 249 262 271 266 286 306 282 272 266 210 186 244 258 235 268 277 263 253 262 301 328 311 304 303 298 296 302 309 317 323 321 327 325 318 354 46 352 296 299 338 326 300 333 317 286 231 251 272 53 36 1 12 22 32 37 22 349 323 12 18 34 57 92 118 123 128 124 116 117 117 117 118 116 115 114 113 114 114 114 115 117
251 232 211 191 186 209 229 235 237 241 229 207 240 266 268 273 247 155 165 248 234 227 262 270 290 294 294 293 294 300 300 299 303 313 320 319 315 320 321 319 332 38 43 304 295 331 333 306 338 294 285 270 241 255 12 69 48 6 23 28 31 37 28 13 17 2 328 355 79 102 119 123 125 121 119 121 120 122 123 118 118 118 115 115 115 114 114 113
237 244 233 205 203 223 233 236 233 228 219 206 213 255 263 272 273 217 168 273 286 236 215 216 270 284 286 290 302 308 303 307 316 320 322 320 322 326 320 320 338 1 309 310 340 11 313 308 336 302 295 312 305 306 40 64 52 34 33 31 31 35 37 29 5 351 350 30 120 117 109 111 119 117 114 117 115 115 115 115 119 118 114 113 112 111 112 111
233 244 232 206 220 230 247 280 276 248 227 223 220 240 250 260 269 265 238 325 280 254 229 247 273 281 295 307 310 307 309 312 311 314 322 321 318 319 316 325 338 331 318 321 348 8 326 317 329 316 316 323 317 357 45 36 39 53 39 30 36 38 37 20 349 15 52 88 111 106 98 98 108 111 111 116 115 111 112 114 118 118 114 111 111 111 109 107
245 268 281 239 231 217 193 268 289 270 230 224 228 246 256 250 256 271 268 234 253 275 289 283 288 296 307 312 298 299 314 300 278 281 292 296 301 313 319 319 319 319 316 315 339 12 328 323 330 319 316 317 317 39 76 55 42 54 35 26 39 44 37 12 349 23 63 95 103 105 101 93 99 111 115 123 123 117 116 118 118 118 117 116 114 113 110 105
247 252 266 274 255 224 199 198 238 250 234 214 212 240 265 253 247 260 249 219 235 255 263 275 307 317 303 298 297 306 317 297 280 279 283 288 300 308 305 303 308 311 311 312 326 322 290 308 320 309 313 320 315 26 109 129 92 61 33 18 30 47 50 18 7 35 42 71 99 107 102 100 116 116 115 122 125 123 124 126 124 118 114 114 115 115 113 107
260 242 239 258 279 245 221 202 214 231 237 226 201 208 252 256 248 252 252 207 249 257 268 328 348 324 281 288 311 316 314 302 294 298 299 296 294 289 283 286 292 295 300 308 313 313 307 307 308 311 324 310 305 337 65 143 125 69 25 5 17 45 63 49 33 48 50 31 54 95 102 110 110 92 99 113 115 114 116 120 123 121 115 111 110 108 105 99